TimeCST,TemperatureF,Dew PointF,Humidity,Sea Level PressureIn,VisibilityMPH,Wind Direction,Wind SpeedMPH,Gust SpeedMPH,PrecipitationIn,Events,Conditions,WindDirDegrees,DateUTC
12:32 AM,57.2,55.4,94,29.85,6.0,SSW,8.1,-,N/A,,Overcast,210,2012-12-08 06:32:00
12:53 AM,57.9,54.0,87,29.85,6.0,SW,5.8,-,N/A,,Mostly Cloudy,230,2012-12-08 06:53:00
1:08 AM,57.2,53.6,88,29.85,6.0,SW,6.9,-,N/A,,Mostly Cloudy,230,2012-12-08 07:08:00
1:53 AM,57.9,55.0,90,29.84,5.0,Calm,Calm,-,N/A,,Mostly Cloudy,0,2012-12-08 07:53:00
2:53 AM,55.9,54.0,93,29.86,4.0,Calm,Calm,-,N/A,,Mostly Cloudy,0,2012-12-08 08:53:00
3:05 AM,55.4,53.6,94,29.85,2.5,Calm,Calm,-,N/A,,Mostly Cloudy,0,2012-12-08 09:05:00
3:44 AM,51.8,48.2,88,29.85,0.8,Calm,Calm,-,N/A,,Partly Cloudy,0,2012-12-08 09:44:00
3:53 AM,52.0,50.0,93,29.85,0.5,Calm,Calm,-,N/A,Fog,Fog,0,2012-12-08 09:53:00
4:02 AM,53.6,50.0,88,29.85,0.2,Calm,Calm,-,N/A,Fog,Fog,0,2012-12-08 10:02:00
4:34 AM,48.2,48.2,100,29.86,0.2,Calm,Calm,-,N/A,Fog,Fog,0,2012-12-08 10:34:00
4:42 AM,48.2,48.2,100,29.86,0.2,SSW,5.8,-,N/A,Fog,Fog,200,2012-12-08 10:42:00
5:21 AM,48.2,48.2,100,29.87,0.2,Calm,Calm,-,N/A,Fog,Fog,0,2012-12-08 11:21:00
5:31 AM,50.0,48.2,94,29.87,0.8,Calm,Calm,-,N/A,,Overcast,0,2012-12-08 11:31:00
5:46 AM,50.0,48.2,94,29.88,0.5,Calm,Calm,-,N/A,Fog,Fog,0,2012-12-08 11:46:00
5:53 AM,48.9,48.0,97,29.88,0.2,Calm,Calm,-,N/A,Fog,Fog,0,2012-12-08 11:53:00
6:25 AM,50.0,48.2,94,29.89,0.8,Calm,Calm,-,N/A,,Overcast,0,2012-12-08 12:25:00
6:32 AM,50.0,48.2,94,29.89,1.8,Calm,Calm,-,N/A,,Overcast,0,2012-12-08 12:32:00
6:48 AM,50.0,48.2,94,29.90,1.2,Calm,Calm,-,N/A,,Overcast,0,2012-12-08 12:48:00
6:53 AM,50.0,48.0,93,29.90,1.5,NNW,3.5,-,N/A,,Overcast,340,2012-12-08 12:53:00
7:07 AM,48.2,48.2,100,29.91,3.0,NNW,5.8,-,N/A,,Overcast,340,2012-12-08 13:07:00
7:17 AM,53.6,51.8,94,29.91,4.0,North,6.9,-,N/A,,Overcast,360,2012-12-08 13:17:00
7:53 AM,53.1,51.1,93,29.92,4.0,NE,5.8,-,N/A,,Mostly Cloudy,50,2012-12-08 13:53:00
8:19 AM,55.4,51.8,88,29.92,5.0,NNE,5.8,-,N/A,,Mostly Cloudy,20,2012-12-08 14:19:00
8:53 AM,55.9,52.0,87,29.91,5.0,NE,5.8,-,N/A,,Mostly Cloudy,50,2012-12-08 14:53:00
9:03 AM,57.2,51.8,82,29.92,5.0,NE,6.9,-,N/A,,Haze,40,2012-12-08 15:03:00
9:34 AM,59.0,51.8,77,29.93,6.0,NNE,8.1,-,N/A,,Haze,20,2012-12-08 15:34:00
9:53 AM,59.0,51.1,75,29.94,7.0,NE,8.1,-,N/A,,Mostly Cloudy,40,2012-12-08 15:53:00
10:53 AM,59.0,51.1,75,29.94,10.0,ENE,8.1,-,N/A,,Overcast,60,2012-12-08 16:53:00
11:53 AM,57.9,50.0,75,29.92,9.0,NE,9.2,-,N/A,,Overcast,40,2012-12-08 17:53:00
12:53 PM,57.0,50.0,77,29.91,8.0,NE,9.2,-,N/A,,Overcast,40,2012-12-08 18:53:00
1:53 PM,57.0,50.0,77,29.91,7.0,NE,9.2,-,N/A,,Overcast,50,2012-12-08 19:53:00
2:53 PM,55.9,48.9,77,29.90,7.0,NNE,11.5,-,N/A,,Overcast,30,2012-12-08 20:53:00
3:53 PM,55.0,48.9,80,29.91,8.0,NE,9.2,-,N/A,,Overcast,40,2012-12-08 21:53:00
4:53 PM,54.0,48.0,80,29.92,10.0,NE,8.1,-,N/A,,Overcast,50,2012-12-08 22:53:00
5:08 PM,53.6,48.2,82,29.91,10.0,NE,11.5,-,N/A,,Overcast,50,2012-12-08 23:08:00
5:53 PM,53.1,46.9,80,29.93,10.0,NE,10.4,-,N/A,,Overcast,50,2012-12-08 23:53:00
6:24 PM,51.8,46.4,82,29.93,8.0,NE,10.4,-,N/A,,Overcast,50,2012-12-09 00:24:00
7:05 PM,51.8,46.4,82,29.94,9.0,NE,6.9,-,N/A,,Overcast,40,2012-12-09 01:05:00
7:29 PM,51.8,46.4,82,29.93,9.0,NE,9.2,-,N/A,,Overcast,40,2012-12-09 01:29:00
7:53 PM,51.1,46.9,86,29.94,9.0,NE,5.8,-,N/A,,Overcast,40,2012-12-09 01:53:00
9:53 PM,51.1,48.0,89,29.93,8.0,ENE,8.1,-,N/A,,Overcast,60,2012-12-09 03:53:00
10:53 PM,51.1,48.0,89,29.92,7.0,NE,4.6,-,N/A,,Overcast,50,2012-12-09 04:53:00
11:53 PM,52.0,48.0,86,29.91,5.0,ENE,5.8,-,N/A,,Overcast,70,2012-12-09 05:53:00